Location: Easthampton
(42.2676°N, 72.6690°W)
Time: 14:02:55
(UTC+00:00)

Gurwin Techsat 1B - Pass Details

Date: 02 April 2023
Orbit: 811 x 813 km, 98.9° (Epoch: 02 June)

Event Time Altitude Azimuth Distance (km) Brightness Sun altitude
Rises 06:43:09 0° 27° (NNE) 3,346 12.8 -36.8°
Reaches altitude 10° 06:46:01 10° 42° (NE) 2,410 11.8 -36.5°
Enters shadow 06:49:40 22° 86° (E) 1,701 10.6 -36.1°
